LHA1096 LOWW-EDDK

Flight info

Callsign LHA1096
Flight time N/A
Altitude 36000
Route BUWUT DCT DITIS DCT RAPET T843 DEMAB T842 EBANA T841 ERNEP ERNEP2C
Aircraft A320/M-SDE1E2FGIRWYZ/LB1

Departure

Time N/A
Airport Vienna International Airport (LOWW)

Arrival

Time 2026-04-24 16:37
Airport Cologne Bonn Airport (EDDK)
Time Latitude Longitude Altitude Speed Heading
2026-04-24 15:24 48.71036 15.55961 25756 ft 402 kts 307°
2026-04-24 15:25 48.73465 15.49938 26050 ft 403 kts 302°
2026-04-24 15:25 48.76734 15.41338 26454 ft 406 kts 301°
2026-04-24 15:26 48.80970 15.30238 27079 ft 407 kts 306°
2026-04-24 15:27 48.85968 15.19728 28020 ft 413 kts 308°
2026-04-24 15:27 48.91069 15.09109 28927 ft 418 kts 308°
2026-04-24 15:28 48.98015 14.94875 30224 ft 423 kts 309°
2026-04-24 15:29 49.01520 14.87682 30848 ft 425 kts 309°
2026-04-24 15:30 49.06821 14.76769 31714 ft 430 kts 308°
2026-04-24 15:31 49.13959 14.62001 32751 ft 435 kts 308°
2026-04-24 15:32 49.21063 14.47212 34096 ft 430 kts 308°
2026-04-24 15:33 49.28075 14.32530 35261 ft 426 kts 308°
2026-04-24 15:33 49.33282 14.21573 36146 ft 422 kts 308°
2026-04-24 15:34 49.36719 14.14315 36653 ft 421 kts 307°
2026-04-24 15:35 49.41844 14.03456 37447 ft 418 kts 307°
2026-04-24 15:35 49.45239 13.96241 37904 ft 417 kts 307°
2026-04-24 15:35 49.46933 13.92632 38055 ft 418 kts 307°
2026-04-24 15:36 49.48633 13.89004 38095 ft 419 kts 307°
2026-04-24 15:36 49.53707 13.78149 38109 ft 417 kts 307°
2026-04-24 15:37 49.57078 13.70912 38109 ft 417 kts 306°
2026-04-24 15:37 49.60448 13.63661 38110 ft 417 kts 306°
2026-04-24 15:38 49.63813 13.56397 38111 ft 417 kts 306°
2026-04-24 15:38 49.67173 13.49126 38111 ft 417 kts 306°
2026-04-24 15:39 49.70534 13.41834 38111 ft 418 kts 306°
2026-04-24 15:39 49.73891 13.34529 38111 ft 418 kts 306°
2026-04-24 15:40 49.77243 13.27216 38111 ft 418 kts 306°
2026-04-24 15:40 49.80600 13.19870 38111 ft 419 kts 306°
2026-04-24 15:41 49.83950 13.12519 38110 ft 418 kts 306°
2026-04-24 15:41 49.87292 13.05164 38110 ft 418 kts 306°
2026-04-24 15:42 49.90632 12.97796 38110 ft 418 kts 305°
2026-04-24 15:42 49.93963 12.90426 38110 ft 418 kts 305°
2026-04-24 15:43 49.97292 12.83038 38112 ft 418 kts 305°
2026-04-24 15:43 50.00612 12.75650 38113 ft 418 kts 305°
2026-04-24 15:44 50.03888 12.68339 38112 ft 412 kts 304°
2026-04-24 15:44 50.07168 12.60996 38113 ft 415 kts 304°
2026-04-24 15:45 50.10447 12.53640 38114 ft 414 kts 304°
2026-04-24 15:45 50.13719 12.46276 38115 ft 414 kts 304°
2026-04-24 15:46 50.16919 12.38838 38117 ft 414 kts 300°
2026-04-24 15:46 50.19305 12.30688 38121 ft 415 kts 289°
2026-04-24 15:47 50.20826 12.22001 38126 ft 416 kts 285°
2026-04-24 15:47 50.22246 12.13265 38131 ft 416 kts 285°
2026-04-24 15:48 50.23646 12.04529 38135 ft 416 kts 285°
2026-04-24 15:48 50.25031 11.95773 38138 ft 417 kts 284°
2026-04-24 15:49 50.26404 11.86989 38139 ft 417 kts 284°
2026-04-24 15:49 50.27769 11.78224 38140 ft 415 kts 284°
2026-04-24 15:50 50.29128 11.69470 38140 ft 416 kts 284°
2026-04-24 15:50 50.30480 11.60704 38139 ft 415 kts 284°
2026-04-24 15:51 50.31787 11.51922 38139 ft 415 kts 284°
2026-04-24 15:51 50.33085 11.43184 38143 ft 414 kts 283°
2026-04-24 15:52 50.34386 11.34418 38144 ft 414 kts 283°
2026-04-24 15:52 50.35668 11.25757 38146 ft 414 kts 283°
2026-04-24 15:53 50.36944 11.16992 38147 ft 414 kts 283°
2026-04-24 15:53 50.38217 11.08221 38150 ft 413 kts 283°
2026-04-24 15:54 50.39488 10.99457 38154 ft 413 kts 283°
2026-04-24 15:54 50.40757 10.90693 38161 ft 413 kts 283°
2026-04-24 15:55 50.42023 10.81921 38164 ft 413 kts 282°
2026-04-24 15:55 50.43283 10.73148 38164 ft 413 kts 282°
2026-04-24 15:56 50.44535 10.64366 38165 ft 413 kts 282°
2026-04-24 15:56 50.45792 10.55584 38166 ft 414 kts 282°
2026-04-24 15:57 50.47050 10.46770 38166 ft 414 kts 282°
2026-04-24 15:57 50.48282 10.37957 38109 ft 415 kts 282°
2026-04-24 15:58 50.48902 10.33521 37874 ft 417 kts 282°
2026-04-24 15:58 50.49520 10.29098 37625 ft 415 kts 282°
2026-04-24 15:58 50.50136 10.24690 37375 ft 415 kts 282°
2026-04-24 15:58 50.50754 10.20261 37126 ft 416 kts 282°
2026-04-24 15:59 50.51371 10.15835 36877 ft 417 kts 282°
2026-04-24 15:59 50.51991 10.11375 36627 ft 418 kts 282°
2026-04-24 15:59 50.52645 10.06936 36376 ft 419 kts 285°
2026-04-24 15:59 50.53707 10.02666 36126 ft 422 kts 296°
2026-04-24 16:00 50.55290 9.98790 35877 ft 425 kts 307°
2026-04-24 16:00 50.57375 9.95456 35628 ft 432 kts 318°
2026-04-24 16:00 50.59893 9.92853 35377 ft 437 kts 330°
2026-04-24 16:00 50.62675 9.90908 35131 ft 439 kts 334°
2026-04-24 16:01 50.65489 9.89038 34881 ft 440 kts 334°
2026-04-24 16:01 50.68303 9.87184 34632 ft 441 kts 334°
2026-04-24 16:01 50.71135 9.85332 33983 ft 443 kts 334°
2026-04-24 16:01 50.73997 9.83471 33047 ft 448 kts 334°
2026-04-24 16:02 50.76882 9.81607 32115 ft 451 kts 335°
2026-04-24 16:02 50.79787 9.79738 31378 ft 449 kts 335°
2026-04-24 16:02 50.82642 9.77906 30867 ft 441 kts 335°
2026-04-24 16:02 50.85467 9.76091 30295 ft 436 kts 335°
2026-04-24 16:03 50.88251 9.74299 29732 ft 430 kts 335°
2026-04-24 16:03 50.90897 9.72214 29175 ft 421 kts 324°
2026-04-24 16:03 50.93157 9.69368 28638 ft 412 kts 313°
2026-04-24 16:03 50.94954 9.65913 28106 ft 405 kts 301°
2026-04-24 16:04 50.96247 9.61995 27470 ft 400 kts 290°
2026-04-24 16:04 50.97006 9.57790 26929 ft 396 kts 283°
2026-04-24 16:04 50.97610 9.53576 26426 ft 391 kts 282°
2026-04-24 16:04 50.98190 9.49400 25937 ft 385 kts 282°
2026-04-24 16:05 50.99271 9.41190 24975 ft 376 kts 282°
2026-04-24 16:05 50.99788 9.37146 24506 ft 372 kts 281°
2026-04-24 16:06 51.00782 9.29207 23591 ft 364 kts 281°
2026-04-24 16:06 51.01265 9.25284 23143 ft 361 kts 281°
2026-04-24 16:06 51.02207 9.17543 22266 ft 355 kts 281°
2026-04-24 16:07 51.02668 9.13718 21836 ft 353 kts 281°
2026-04-24 16:07 51.03126 9.09900 21409 ft 352 kts 281°
2026-04-24 16:07 51.04026 9.02317 20567 ft 348 kts 280°
2026-04-24 16:08 51.04311 8.98519 20152 ft 347 kts 274°
2026-04-24 16:08 51.04079 8.90909 19317 ft 346 kts 262°
2026-04-24 16:09 51.03298 8.83417 18502 ft 343 kts 262°
2026-04-24 16:09 51.02896 8.79684 18094 ft 343 kts 261°
2026-04-24 16:09 51.02488 8.75965 17699 ft 342 kts 261°
2026-04-24 16:09 51.02078 8.72263 17291 ft 341 kts 261°
2026-04-24 16:10 51.00859 8.61239 16093 ft 338 kts 261°
2026-04-24 16:11 51.00055 8.53936 15295 ft 336 kts 262°
2026-04-24 16:11 50.99653 8.50294 14889 ft 335 kts 262°
2026-04-24 16:11 50.99250 8.46659 14492 ft 334 kts 262°
2026-04-24 16:12 50.98446 8.39434 13707 ft 332 kts 262°
2026-04-24 16:12 50.98044 8.35846 13299 ft 331 kts 262°
2026-04-24 16:12 50.97227 8.28622 12286 ft 334 kts 261°
2026-04-24 16:13 50.96631 8.25071 11848 ft 334 kts 253°
2026-04-24 16:13 50.95120 8.18155 10998 ft 330 kts 253°
2026-04-24 16:14 50.93646 8.11517 10672 ft 306 kts 253°
2026-04-24 16:14 50.92956 8.08423 10591 ft 292 kts 253°
2026-04-24 16:14 50.91648 8.02584 10182 ft 277 kts 253°
2026-04-24 16:15 50.91217 8.00669 9972 ft 277 kts 253°
2026-04-24 16:15 50.89726 7.94039 9229 ft 271 kts 253°
2026-04-24 16:16 50.88454 7.88420 8598 ft 270 kts 253°
2026-04-24 16:16 50.87823 7.85634 8277 ft 268 kts 253°
2026-04-24 16:17 50.85941 7.77356 7306 ft 264 kts 253°
2026-04-24 16:17 50.84707 7.71948 6678 ft 261 kts 253°
2026-04-24 16:18 50.83480 7.66579 6031 ft 257 kts 253°
2026-04-24 16:18 50.82269 7.61299 5379 ft 254 kts 253°
2026-04-24 16:18 50.81668 7.58681 5054 ft 254 kts 253°
2026-04-24 16:19 50.80471 7.53482 4379 ft 249 kts 253°
2026-04-24 16:19 50.79887 7.50954 4082 ft 242 kts 253°
2026-04-24 16:20 50.78775 7.46151 3460 ft 223 kts 253°
2026-04-24 16:20 50.77790 7.41910 3263 ft 194 kts 253°
2026-04-24 16:20 50.77330 7.39926 3182 ft 190 kts 253°
2026-04-24 16:21 50.76427 7.36034 3032 ft 188 kts 253°
2026-04-24 16:21 50.75978 7.34102 3004 ft 188 kts 254°
2026-04-24 16:21 50.75859 7.32121 2975 ft 182 kts 285°
2026-04-24 16:22 50.76396 7.30345 2799 ft 178 kts 307°
2026-04-24 16:22 50.78036 7.27477 2311 ft 176 kts 317°
2026-04-24 16:22 50.78918 7.26152 2072 ft 174 kts 318°
2026-04-24 16:23 50.79803 7.24853 1848 ft 176 kts 318°
2026-04-24 16:23 50.80699 7.23554 1610 ft 175 kts 318°
2026-04-24 16:23 50.81599 7.22253 1384 ft 175 kts 317°
2026-04-24 16:24 50.83381 7.19671 928 ft 174 kts 317°
2026-04-24 16:24 50.84270 7.18381 700 ft 173 kts 317°
2026-04-24 16:24 50.85160 7.17097 472 ft 173 kts 317°
2026-04-24 16:24 50.86026 7.15836 474 ft 165 kts 317°
2026-04-24 16:25 50.86885 7.14579 1188 ft 162 kts 317°
2026-04-24 16:25 50.87652 7.13465 1486 ft 141 kts 317°
2026-04-24 16:25 50.88353 7.12457 1366 ft 133 kts 317°
2026-04-24 16:26 50.89850 7.10328 1447 ft 156 kts 318°
2026-04-24 16:26 50.90627 7.09227 1762 ft 144 kts 318°
2026-04-24 16:26 50.92072 7.07160 1814 ft 142 kts 318°
2026-04-24 16:27 50.92928 7.06376 1868 ft 147 kts 352°
2026-04-24 16:27 50.93850 7.06740 2101 ft 133 kts 35°
2026-04-24 16:27 50.94573 7.07715 2292 ft 145 kts 41°
2026-04-24 16:27 50.95332 7.08945 2665 ft 176 kts 43°
2026-04-24 16:28 50.96306 7.10584 2957 ft 239 kts 50°
2026-04-24 16:28 50.97183 7.12866 2996 ft 242 kts 58°
2026-04-24 16:28 50.98556 7.17291 2977 ft 212 kts 71°
2026-04-24 16:29 50.98556 7.19611 2985 ft 216 kts 102°
2026-04-24 16:29 50.97822 7.21686 3007 ft 219 kts 127°
2026-04-24 16:29 50.95772 7.25260 3000 ft 219 kts 131°
2026-04-24 16:30 50.93715 7.28809 3000 ft 219 kts 130°
2026-04-24 16:30 50.92683 7.30586 2998 ft 219 kts 131°
2026-04-24 16:30 50.91586 7.32262 2996 ft 220 kts 139°
2026-04-24 16:31 50.90387 7.33759 3001 ft 220 kts 141°
2026-04-24 16:31 50.89180 7.35242 2999 ft 220 kts 141°
2026-04-24 16:31 50.87971 7.36729 2999 ft 221 kts 141°
2026-04-24 16:31 50.86650 7.37937 2992 ft 221 kts 156°
2026-04-24 16:32 50.85215 7.38820 2998 ft 221 kts 159°
2026-04-24 16:32 50.83778 7.39684 3001 ft 222 kts 159°
2026-04-24 16:32 50.82328 7.40473 2986 ft 219 kts 169°
2026-04-24 16:32 50.80869 7.40334 2971 ft 207 kts 201°
2026-04-24 16:33 50.79604 7.39373 3024 ft 200 kts 210°
2026-04-24 16:33 50.78437 7.38230 2998 ft 196 kts 221°
2026-04-24 16:33 50.77429 7.36805 2996 ft 194 kts 228°
2026-04-24 16:33 50.76509 7.35251 2995 ft 194 kts 231°
2026-04-24 16:34 50.75794 7.33512 2985 ft 186 kts 257°
2026-04-24 16:34 50.75815 7.31531 2967 ft 182 kts 290°
2026-04-24 16:34 50.76484 7.29915 2739 ft 175 kts 313°
2026-04-24 16:34 50.77326 7.28521 2499 ft 175 kts 317°
2026-04-24 16:35 50.78205 7.27189 2260 ft 176 kts 318°
2026-04-24 16:35 50.79090 7.25886 2026 ft 175 kts 319°
2026-04-24 16:35 50.79989 7.24579 1807 ft 176 kts 319°
2026-04-24 16:35 50.80884 7.23300 1577 ft 172 kts 319°
2026-04-24 16:36 50.81772 7.22051 1357 ft 171 kts 319°
2026-04-24 16:36 50.82616 7.20809 1186 ft 157 kts 316°
2026-04-24 16:36 50.83343 7.19650 985 ft 145 kts 316°
2026-04-24 16:36 50.84069 7.18620 828 ft 135 kts 318°
2026-04-24 16:37 50.84751 7.17676 578 ft 128 kts 316°
2026-04-24 16:37 50.85384 7.16744 388 ft 121 kts 317°
2026-04-24 16:37 50.85976 7.15888 319 ft 106 kts 318°
2026-04-24 16:37 50.86341 7.15372 317 ft 36 kts 319°
2026-04-24 16:38 50.86516 7.15126 317 ft 33 kts 317°
2026-04-24 16:38 50.86706 7.14848 317 ft 37 kts 317°
2026-04-24 16:38 50.86847 7.14581 317 ft 26 kts 300°
2026-04-24 16:38 50.86883 7.14371 317 ft 16 kts 279°
2026-04-24 16:39 50.86895 7.14264 317 ft 6 kts 279°
2026-04-24 16:39 50.86895 7.14262 317 ft 0 kts 279°
2026-04-24 16:39 50.86898 7.14230 317 ft 10 kts 279°
2026-04-24 16:39 50.86921 7.14027 317 ft 22 kts 280°
2026-04-24 16:40 50.86963 7.13859 317 ft 16 kts 313°
2026-04-24 16:40 50.87003 7.13812 317 ft 0 kts 320°
2026-04-24 16:40 50.87005 7.13810 317 ft 3 kts 318°
2026-04-24 16:40 50.87046 7.13749 317 ft 13 kts 316°
2026-04-24 16:41 50.87116 7.13644 317 ft 14 kts 316°
2026-04-24 16:41 50.87187 7.13540 317 ft 14 kts 317°
2026-04-24 16:41 50.87260 7.13433 317 ft 14 kts 317°
2026-04-24 16:41 50.87332 7.13329 317 ft 14 kts 318°
2026-04-24 16:42 50.87410 7.13217 317 ft 17 kts 317°
2026-04-24 16:42 50.87495 7.13095 317 ft 16 kts 318°
2026-04-24 16:42 50.87579 7.12976 317 ft 16 kts 318°
2026-04-24 16:42 50.87661 7.12858 317 ft 16 kts 318°
2026-04-24 16:43 50.87741 7.12741 317 ft 16 kts 317°
2026-04-24 16:43 50.87804 7.12650 317 ft 10 kts 319°
2026-04-24 16:43 50.87842 7.12615 317 ft 0 kts 339°
2026-04-24 16:44 50.87847 7.12610 317 ft 7 kts 332°
2026-04-24 16:44 50.87857 7.12571 317 ft 15 kts 281°
2026-04-24 16:44 50.87870 7.12483 317 ft 5 kts 288°
2026-04-24 16:44 50.87876 7.12455 317 ft 0 kts 290°